Content
SEND FEEDBACK

Daily
Averages
Monthly
Summary
Japan

KUSHIRO, JAPAN


Home > Asia > Japan
Elevation: 121 feet     Latitude: 42 59N     Longitude: 144 24E

WEATHER
 
SELECT A DAY
Number of Records: 116,227;   Date Range: 7/1/96 - 4/18/14
 
SHARE

PRINT THIS DATA

[ ← Previous Day ]
WEATHER ALMANAC - FEBRUARY 13, 2013
[ Next Day → ]
[ °C ]   °F
Weather ElementAverageHighLow
Temperature25.1 °F30.2 °F (2:00 pm)21.2 °F (7:47 am)
Dewpoint19.1 °F23 °F (11:17 am)14 °F (8:00 pm)
Humidity78.5 %93 % (8:43 am)64 % (2:00 pm)
Barometer30.02 in30.06 in (7:47 am)29.95 in (2:00 pm)
Wind Speed7.8 mph12.7 mph (2:00 pm)
Weather ElementAverage
Visibility5 mi
Wind DirectionNE (44.8 °)

Weather ElementTotal
Precipitation---
Heating Degree Days39.3 (Base 65)
Averaged from 21 records on February 13, 2013
WEATHER CONDITIONS BREAKOUT
WIND DIRECTION BREAKOUT
WEATHER BY HOUR - FEBRUARY 13, 2013
[ °C ]   °F
Local TimeTemperatureDewpointHumidityBarometerVisibilityWind DirectionWind SpeedGust SpeedPrecipitationEventsConditions
7:47 AM21.2 °F17.6 °F86 %30.06 in3.1 miNNE (20°)5.8 mphSnowLight Snow Showers
8:00 AM21.2 °F17.6 °F86 %30.06 in5.0 miNorth (10°)6.9 mphSnowLight Snow Showers
8:43 AM21.2 °F19.4 °F93 %30.06 inNNE (20°)6.9 mphSnowLight Snow Showers
9:00 AM23.0 °F19.4 °F86 %30.04 in2.2 miNorth (10°)8.1 mphSnowLight Snow Showers
9:14 AM23.0 °F19.4 °F86 %30.04 in3.1 miNorth (10°)4.6 mphSnowLight Snow Showers
10:00 AM24.8 °F21.2 °F86 %30.04 in6.2 miNE (50°)5.8 mphSnowLight Snow Showers
10:15 AM24.8 °F19.4 °F80 %30.04 inENE (60°)5.8 mphSnowLight Snow Showers
11:00 AM24.8 °F21.2 °F86 %30.04 in2.2 miNE (40°)8.1 mphSnowLight Snow Showers
11:04 AM24.8 °F21.2 °F86 %30.04 inNNE (30°)6.9 mphSnowLight Snow Showers
11:17 AM26.6 °F23.0 °F86 %30.04 inNorth (10°)8.1 mphSnowLight Snow Showers
11:31 AM26.6 °F21.2 °F80 %30.01 in3.1 miNNE (20°)8.1 mphSnowLight Snow Showers
11:40 AM26.6 °F21.2 °F80 %30.01 in5.0 miNNE (20°)8.1 mphSnowLight Snow Showers
12:00 PM26.6 °F21.2 °F80 %30.01 in6.2 miNNE (30°)8.1 mphScattered Clouds
1:00 PM28.4 °F19.4 °F69 %29.98 in6.2 miNNE (20°)9.2 mphMostly Cloudy
2:00 PM30.2 °F19.4 °F64 %29.95 in6.2 miNNE (20°)12.7 mphMostly Cloudy
3:00 PM28.4 °F17.6 °F64 %29.98 in6.2 miNE (40°)9.2 mphPartly Cloudy
4:00 PM28.4 °F19.4 °F69 %29.98 in6.2 miNNE (30°)11.5 mphPartly Cloudy
5:00 PM26.6 °F15.8 °F64 %30.01 in6.2 miNE (50°)8.1 mphPartly Cloudy
6:00 PM24.8 °F15.8 °F69 %30.04 in6.2 miENE (60°)5.8 mphPartly Cloudy
7:00 PM23.0 °F15.8 °F74 %30.04 in6.2 miNNE (30°)8.1 mphPartly Cloudy
8:00 PM21.2 °F14.0 °F74 %30.01 in6.2 miNorth (360°)8.1 mphPartly Cloudy
Hourly data recorded from RJCK, located 11.12 miles away from Kushiro, Japan







STORIES FROM OUR PARTNERS